GLOBALSTAR M072

Last updated on Mon Sep 21 2026 00:03:12 GMT+0000 (Coordinated Universal Time)

1 31574U 07020D 26263.36490455 -.00000099 00000+0 -20292-3 0 9991 2 31574 51.9920 206.8559 0001329 111.2443 67.1804 11.91659894886320
UTC large
Height (km)
Speed (km/s)
/
Latitude / Longitude
Inclination (degrees)
Orbital Period (minutes)
Azimuth
Elevation
Range (km)
Doppler Factor

Next 0 passes for location: London (51.5072 / 0.1276)

No passes found over London.
GLOBALSTAR M072